Volver al catálogo

SL-8 R/B

ActivoPO
NORAD 12088·ROCKET BODY·🇷🇺 Russia

Lanzado Dec 5, 1980 desde Plesetsk Cosmodrome

Loading…

Próximos Pases (próximas 24 horas)

TLE

ActualizadoSource: Space-Track

Época: Sep 14, 2026, 05:38 UTC

1 12088U 80097B   26257.23526199  .00000063  00000-0  48098-4 0  9994
2 12088  82.9472 352.4752 0048181 337.1739  22.7276 13.77346963299652

Sigue SL-8 R/B en tiempo real con AllMySat

Download on the App Store